Location: Cicognara
(44.9500°N, 10.4667°E)
Time: 05:15:30
(UTC+00:00)

Lacrosse 4 Rocket - Pass Details

Date: 23 October 2021
Orbit: 537 x 619 km, 68.0° (Epoch: 06 December)

Event Time Altitude Azimuth Distance (km) Brightness Sun altitude
Rises 19:02:17 0° 316° (NW) 2,822 5.8 -29.3°
Reaches altitude 10° 19:04:54 10° 301° (WNW) 1,932 4.9 -29.7°
Maximum altitude 19:08:12 22° 252° (WSW) 1,342 3.8 -30.3°
Enters shadow 19:09:25 19° 228° (SW) 1,438 3.7 -30.5°
